Погода в Серове

Погода в Серове : погода сейчас, прогноз погоды и архив. Всё, что Вы хотите узнать о погоде в Серове!

Поиск расширенной информации на нашем сайте:

Другие новости

Новости СМИ2

Главная страница сайта

Новости сайта

03.07.2017

Напоминаем, что на нашем специализированном сайте Метеоцентр.Азия вы можете получить высокодетализированные автоматические прогнозы погоды по пунктам России, СНГ и мира в авиационном формате (включающие направление и скорость ветра, видимость, явления погоды, количество и форму облачности, нижнюю и верхнюю границу облачности).


Погода в Серове - сегодня

Время (UTC), дата Ветер
(°,м/с) 
Видим.   Явления Облачность Т
(°С)
Тd
(°С)
f(%) Тe
(°С)
Pmin
(гПа)
dP
(гПа)
Po
(мм)
O2
(г/м3)
Тmin Tmax R s Состояние
почвы
00 17.08.18 330 (СЗ) 2000 м  слаб. дождь  10/10 300 м 
[Frnb]
+12.1 +10.5 90 +14  1008.4  -0.2  745  286           
03 17.08.18 340 (С) 20000 м  {дождь}  10/10 300 м 
[Frnb]
+12.5 +10.8 89 +14  1009.5  1.1  746  285  +11.8      влажная 
06 17.08.18 330 (СЗ) 20000 м  {дождь}  10/10 300 м 
[Frnb]
+12.9 +10.1 83 +14  1010.3  0.8  747  285           
09 17.08.18 320 (СЗ) 20000 м    9/9 600 м 
[Sc]
+15 +8.8 66 +15  1011.4  1.2  748  284           
12 17.08.18 320 (СЗ) 3{10}  20000 м    9/9 600 м 
[Cu Sc]
+16.2 +6.6 53 +17  1012  0.6  748  283           
18 17.08.18 310 (СЗ) 10 км    4/4 600 м 
[Sc]
+11.1 +7.6 79 +11  1014.5  0.8  750  289           
21 17.08.18 320 (СЗ) 10 км    3/3 600 м 
[Sc]
+10.5 +6.9 78 +10  1014.8  0.3  750  290           
00 18.08.18 320 (СЗ) 10 км    ясно 
+9.3 +6.1 80 +9  1016  1.1  751  292           
06 18.08.18 320 (СЗ) 20000 м    10/10 600 м 
[Sc]
+13.1 +8 71 +14  1018.2  0.9  752  288           
09 18.08.18 340 (С) 20000 м    8/8 600 м 
[Cu Sc]
+16.5 +7.2 54 +17  1018.1  0.9  753  285           
12 18.08.18 290 (З) 20000 м  {ливн. осадки}  6/6 300 м кучево-дожд. 
[Cb calv]
+15.6 +7.8 60 +16  1018.4  0.2  753  286           
18 18.08.18 300 (СЗ) 10 км    9/9 600 м 
[Sc]
+11.9 +8.6 80 +12  1019.5  0.4  753  289           
21 18.08.18 310 (СЗ) 10 км    8/8 600 м 
[Sc]
+9.7 +6.6 81 +10  1020.7  754  292           
00 19.08.18 270 (З) 10 км    5/5 600 м 
[Cu Sc]
+6.5 +5.1 91 +6  1021.5  0.6  755  296           
06 19.08.18 050 (СВ) 20000 м    4/3 300 м верхняя 
[Cu hum|Ci fib]
+15.7 +4.6 48 +16  1021.3  0.1  755  287           
09 19.08.18 050 (СВ) 20000 м    8/8 300 м кучево-дожд. 
[Cb calv]
+17 +4.1 42 +18  1019.9  -1.3  754  285           
12 19.08.18 350 (С) 20000 м    4/4 300 м кучево-дожд. 
[Cb calv]
+18 +3.5 38 +19  1018.8  -1  753  284           
18 19.08.18 280 (З) 10 км    5/5 600 м 
[Sc]
+10.2 +6.1 76 +11  1018.6  753  291           
21 19.08.18 300 (СЗ) 10 км    3/3 600 м 
[Sc]
+7.6 +5.4 86 +9  1018.1  -0.6  752  294           
00 20.08.18 290 (З) 10 км    5/5 600 м 
[Sc]
+7.1 +5.2 88 +8  1017.5  -0.6  752  294           
06 20.08.18 230 (ЮЗ) 20000 м    5/5 600 м 
[Sc]
+16.9 +6.4 50 +18  1015.6  -0.8  751  284           
09 20.08.18 210 (ЮЗ) 20000 м    8/8 600 м 
[Cu Sc]
+18.2 +7.6 50 +20  1014  -1.5  750  282           
12 20.08.18 190 (Ю) 20000 м    4/4 600 м 
[Cu med, cong]
+20.2 +5.5 38 +20  1012.3  -1.6  748  280           
18 20.08.18 320 (СЗ) 10 км    3/3 600 м 
[Sc]
+10.4 +7.6 83 +12  1011.7  -0.7  748  289           
21 20.08.18 280 (З) 10 км    ясно 
+9.1 +7.4 89 +10  1010.8  -0.9  747  290           
Время (UTC), дата Ветер
(°,м/с) 
Видим.   Явления Облачность Т
(°С)
Тd
(°С)
f(%) Тe
(°С)
Pmin
(гПа)
dP
(гПа)
Po
(мм)
O2
(г/м3)
Тmin Tmax R s Состояние
почвы

Для получения пояснительной информации подведите курсор к названию столбца.

ПОГОДА в Серове - архив

Всё, что Вы хотите узнать о погоде в Серове - удобно и подробно!

Выберите нужную дату (начиная с 1 января 2015* года) и нажмите кнопку "Найти".
Будут отображены архивные сводки погоды по пункту Серов, начиная с указанной даты.


Отображать данные в формате CSV (для использования в таблицах Excel)


Внимание! Наш архив погоды предназначен исключительно для личного некоммерческого использования в познавательных целях. Если Вам необходимы официальные справки о состоянии погоды (для производственных, юридических, коммерческих и т.п. целей), обращайтесь в органы Росгидромета.

*Примечание: данная дата относится к архиву по метеостанциям СССР (Россия, СНГ, Балтия).
Архив по метеостанциям Зарубежной Европы и Азии (кроме Китая) хранится 10 дней, по другим регионам земного шара (Китай, Африка, Америка, Австралия, Океания) - 1 день.

Серов - район местоположения метеостанции


Название, широта, долгота, высота метеостанции:
Серов 59.6°ш. 60.5°д. 130 м над ур. моря [Российская Федерация]

Дополнительная информация

В oтличие oт бoльшинства пoгoдных сайтoв мы публикуем пoдрoбную метеoинфoрмацию в детальнoм прoфессиoнальнoм фoрмате.

Характеристики температуры и влажнoсти вoздуха измеряются на высoте 2 м в тени вдали oт зданий и деревьев.
Скoрoсть ветра измеряется на высoте 10 м (на урoвне рoста челoвека скoрoсть ветра ниже в 1.5-2 раза). Если метеoстанция нахoдится в гoрoде или в лесу, тo скoрoсть ветра занижена на 2-4 м/с пo сравнению с oткрытым местoм. Скoрoсть ветра над акватoриями крупных рек и oзёр, а также на вершинах хoлмoв на 2-5 м/с выше, чем в oбычных услoвиях.
Атмoсфернoе давление в разных тoчках местнoсти мoжет значительнo oтличаться oт давления на метеoстанции, в зависимoсти oт услoвий рельефа (при пoдъёме на 10 м давление пoнижается примернo на 1 мм рт.ст.).